Location: G�ndlingen
(48.0142°N, 7.6396°E)
Time: 17:24:55
(UTC+00:00)

Cosmos 44 - Pass Details

Date: 05 July 2020
Orbit: 586 x 776 km, 65.1° (Epoch: 13 August)

Event Time Altitude Azimuth Distance (km) Brightness Sun altitude
Exits shadow 23:43:41 26° 242° (WSW) 1,195 4.2 -19.3°
Maximum altitude 23:45:59 57° 312° (NW) 712 3.5 -19.3°
Drops below altitude 10° 23:50:22 10° 32° (NNE) 1,986 6.6 -19.2°
Sets 23:52:44 0° 36° (NE) 2,922 7.5 -19.2°
